Regional Weather Roundup
Issued by NWS

Home | Current Version | Previous Version | Text Only | Print | Product List | Glossary Off
Versions: 1 2 3 4 5 6 7 8 9 10 11 12 13 14 15 16 17 18 19 20 21 22 23 24 25 26 27 28 29 30 31 32 33 34 35 36 37 38 39 40 41 42 43 44 45 46 47 48 49 50

000
ASUS45 KTFX 230519
RWRMT
MONTANA HOURLY WEATHER ROUNDUP
NATIONAL WEATHER SERVICE GREAT FALLS MT
1119 PM MDT WED OCT 22 2014

NOTE: "FAIR" INDICATES FEW OR NO CLOUDS BELOW 12000 FEET WITH NO
SIGNIFICANT WEATHER AND/OR OBSTRUCTIONS TO VISIBILITY.

* THESE STATIONS ARE NOT UNDER NWS QUALITY CONTROL. THEY DO NOT
   REPORT WEATHER SUCH AS PRECIPITATION OR FOG.

MTZ001>007-043-230600-
WEST OF THE DIVIDE
CITY           SKY/WX    TMP DP  RH WIND       PRES   REMARKS
KALISPELL      CLOUDY    54  37  53 S12       29.82F
MISSOULA       MOCLDY    52  36  55 E6        29.90S
BUTTE          CLOUDY    37  30  76 E6        30.03F WCI  32
MULLAN PASS    CLOUDY    43  30  60 N/A       29.88S
* ESSEX        N/A       40  37  89 SW1        N/A
* LINCOLN      N/A       35  32  89 NE2        N/A
* LOOKOUT PASS N/A       50  33  52 SE11G22    N/A
* POLSON       N/A       48  38  68 S2         N/A
* RONAN APT    PTCLDY    52  37  57 N/A        N/A
* SEELEY LAKE  N/A       35  33  92 NE2        N/A
* THOMP F APT  MOCLDY    38  22  53 E5G14      N/A   WCI  34
$$

MTZ008-052>055-230600-
SOUTHWEST MONTANA
CITY           SKY/WX    TMP DP  RH WIND       PRES   REMARKS
BOZEMAN        PTCLDY    32  28  85 SE8       30.04R WCI  25
DILLON         MOCLDY    43  28  56 CALM      30.05F
W YELLOWSTONE  CLEAR     27  25  92 CALM      30.18F
* THREE FORKS  PTCLDY    48  37  66 SW10G20    N/A
* BOULDER HILL N/A       42  25  51 S13        N/A
* MONIDA PASS  N/A       33  25  72 SE9G14     N/A   WCI  25
* RAYNOLDS PAS N/A       33  16  50 S14        N/A   WCI  23
* WHITEHALL    N/A       46  32  58 SW5G10     N/A
* WISE RIVER   N/A       35  30  82 S5         N/A   WCI  31
$$

MTZ009>010-012-014-046-048-049-054-230600-
EAST SLOPES AND CENTRAL MONTANA
CITY           SKY/WX    TMP DP  RH WIND       PRES   REMARKS
CUT BANK       MOCLDY    46  36  68 S9        29.78F
GREAT FALLS    CLEAR     50  34  54 S14       29.87F
HELENA         PTCLDY    55  30  39 S14G25    29.93F
MALMSTROM AFB  CLEAR     52  34  50 SW16G25   29.88F
* CONRAD       MOCLDY    50  39  66 SE15       N/A
* DEARBORN     N/A       57  32  39 S8         N/A
* EAST GLACIER N/A       49  34  56 W16G24     N/A
* MONARCH      N/A       48  20  33 S20G26     N/A
* PENDROY      N/A       47  35  63 S12        N/A
* ROGERS PASS  N/A       45  30  56 SE8G16     N/A
* SAINT MARY   N/A       52  34  50 SW10G23    N/A
* SWEET GRASS  N/A       52  33  48 SW13       N/A
* WHITE SULPH  N/A       45  26  47 S9G21      N/A
$$

MTZ011-013-016-021-035-040-045-047-050-051-230600-
NORTH CENTRAL MONTANA
CITY           SKY/WX    TMP DP  RH WIND       PRES   REMARKS
HAVRE          CLEAR     52  36  55 SW20      29.80F
LEWISTOWN      CLEAR     46  30  54 S8        29.93R
* CHINOOK      CLEAR     43  34  71 E5        29.81F
* FORT BENTON  CLEAR     55  34  45 SW7       29.84F
* CHESTER      N/A       44  36  74 SW3        N/A
* DENTON       N/A       42  31  65 S8         N/A
* GEYSER       N/A       48  28  46 SW14       N/A
* JUDITH GAP   N/A       48  30  50 SW13       N/A
* LOMA         N/A       53  34  49 SW6        N/A
$$

MTZ017>020-022>027-061-062-230600-
NORTHEAST MONTANA
CITY           SKY/WX    TMP DP  RH WIND       PRES   REMARKS
GLASGOW        CLEAR     45  30  56 S5        29.86F
GLENDIVE       PTCLDY    36  28  73 S7        29.93S WCI  30
JORDAN         CLEAR     30  25  82 CALM      29.90F
SIDNEY         CLEAR     39  30  70 CALM      29.90F
WOLF POINT     PTCLDY    34  28  79 CALM      29.88S
* BEAVER HILL  N/A       46  29  52 S9         N/A
* CIRCLE       N/A       41  30  65 N/A        N/A
* LINDSAY DVD  N/A       43  28  56 SW6        N/A
* NAVAJO       N/A       40  31  70 W9         N/A   WCI  34
$$

MTZ028>042-056>058-230600-
SOUTHCENTRAL AND SOUTHEAST MONTANA
CITY           SKY/WX    TMP DP  RH WIND       PRES   REMARKS
BAKER          CLEAR     36  28  73 CALM      29.96S
BILLINGS       CLEAR     54  21  27 W15       29.95F
LIVINGSTON     CLEAR     52  21  30 SW26G38   29.99F
MILES CITY     CLEAR     43  28  56 SE8       29.93F
* LAUREL APT   CLEAR     48  21  34 N/A        N/A
* ROUNDUP APT  CLEAR     48  27  44 N/A        N/A
* ALZADA       N/A       39  29  67 E4         N/A
* HYSHAM       N/A       49  21  33 W3         N/A
* LAME DEER    N/A       49  21  33 SW3        N/A
* REED POINT   N/A       39  26  60 N/A        N/A
* ROSCOE HILL  N/A       52  12  20 S16G26     N/A
$$

REGIONAL REPORTS...DAKOTAS
CITY           SKY/WX    TMP DP  RH WIND       PRES   REMARKS
WILLISTON      PTCLDY    45  32  60 SW5       29.87F
DICKINSON      CLEAR     43  30  60 SW7       29.92R
BEACH          N/A       36  30  79 CALM      29.94S
CROSBY         N/A       46  37  71 W12       29.84S
TIOGA          CLEAR     41  36  82 W9        29.89S
BISMARCK       CLEAR     43  34  71 S3        29.92S
GRAND FORKS    CLEAR     46  46 100 S7        29.84F
FARGO          CLEAR     52  48  86 S9        29.89F
BUFFALO SD     CLEAR     43  27  53 W5        29.92S
RAPID CITY     CLEAR     37  32  82 W5        30.03R WCI  33
$$

REGIONAL REPORTS...WYOMING/IDAHO/WASHINGTON
CITY           SKY/WX    TMP DP  RH WIND       PRES   REMARKS
GILLETTE       CLEAR     39  21  48 S3        30.04R
SHERIDAN       CLEAR     34  25  70 S3        30.00S
CODY           PTCLDY    52  21  30 W14       30.06F
YELLOWSTONE LA PTCLDY    27  21  78 NW3       30.24S
SALMON         CLOUDY   N/A N/A N/A N/A        N/A
MULLAN PASS    CLOUDY    43  30  60 N/A       29.88S
SAND POINT     RAIN      46  46 100 CALM      29.81S
SPOKANE        LGT RAIN  52  48  86 S12       29.76F
$$

REGIONAL REPORTS...ALBERTA
CITY           SKY/WX    TMP DP  RH WIND       PRES   REMARKS
CALGARY        MOCLDY    48  32  54 S8        29.61F
LETHBRIDGE     CLEAR     48  36  63 SW7       29.70F
MEDICINE HAT   CLEAR     50  37  61 S13G18    29.70F
EDMONTON       CLOUDY    43  32  65 SE8       29.55F
WATERTON GATE  N/A       54  34  47 SW22G33    N/A
CARDSTON       N/A       50  36  59 S9         N/A
MILK RIVER     N/A       54  36  51 S20G25     N/A
$$

REGIONAL REPORTS...SASKATCHEWAN
CITY           SKY/WX    TMP DP  RH WIND       PRES   REMARKS
SWIFT CURRENT  CLEAR     43  36  76 SW12      29.76F
REGINA         N/A       39  37  93 SW5       29.78F WCI  35
VAL MARIE      N/A       32  28  85 SW3        N/A
ASSINIBOIA     N/A       41  34  76 SW12       N/A
CORONACH       N/A       37  30  76 W3         N/A

$$




USA.gov is the U.S. government's official web portal to all federal, state and local government web resources and services.